Weather History for KRQE - January, 2013

Change the Weather History Date:

Wednesday, January 16, 2013

  Actual Average Record
Temperature  
Mean Temperature 14 °F -  
Max Temperature 33 °F 43 °F 61 °F (2000)
Min Temperature -5 °F 16 °F -12 °F (1947)
Degree Days  
Heating Degree Days 51    
Moisture  
Dew Point 0 °F    
Average Humidity 62    
Maximum Humidity 84    
Minimum Humidity 37    
Precipitation  
Precipitation 0.00 in - - ()
Sea Level Pressure  
Sea Level Pressure 30.52 in    
Wind  
Wind Speed 1 mph (South)    
Max Wind Speed 10 mph    
Max Gust Speed -    
Visibility 10 miles    
Events      
Averages and records for this station are not official NWS values.
T = Trace of Precipitation, MM = Missing Value Source: NWS Daily Summary

Daily Weather History Graph

Daily Weather History Graph

Search for Another Location

Airport or City:

Trip Planner

Search our weather history database for the weather conditions in past years. The results will help you decide how hot, cold, wet, or windy it might be!

Date:

Astronomy

Jan. 16, 2013 Rise Set
Actual Time 7:24 AM MST 5:27 PM MST
Civil Twilight 6:57 AM MST 5:55 PM MST
Nautical Twilight 6:25 AM MST 6:26 PM MST
Astronomical Twilight 5:55 AM MST 6:57 PM MST
Moon 10:15 AM MST (1/16) 11:08 PM MST (1/16)
Length of Visible Light 10h 58m
Length of Day
10h 02m
Waxing Crescent, 29% of the Moon is Illuminated
Jan 16
Waxing Crescent
Jan 18
First Quarter
Jan 26
Full
Feb 3
Last Quarter
Feb 10
New

Hourly Weather History & Observations

Time (MST) Temp. Windchill Dew Point Humidity Pressure Visibility Wind Dir Wind Speed Gust Speed Precip Events Conditions
12:53 AM -4.0 °F - -9.9 °F 76% 30.53 in 10.0 mi Calm Calm - N/A   Clear
1:53 AM -4.0 °F - -9.9 °F 76% 30.51 in 10.0 mi Calm Calm - N/A   Clear
2:53 AM -4.0 °F - -9.9 °F 76% 30.51 in 10.0 mi Calm Calm - N/A   Clear
3:53 AM -0.9 °F - -9.0 °F 69% 30.49 in 10.0 mi Calm Calm - N/A   Clear
4:53 AM -4.0 °F -14.6 °F -9.9 °F 76% 30.51 in 10.0 mi SSW 4.6 mph - N/A   Clear
5:53 AM -2.9 °F - -9.0 °F 75% 30.54 in 10.0 mi Calm Calm - N/A   Clear
6:53 AM -4.0 °F - -9.0 °F 79% 30.57 in 10.0 mi Calm Calm - N/A   Clear
7:53 AM -5.1 °F - -9.9 °F 80% 30.62 in 10.0 mi Calm Calm - N/A   Clear
8:53 AM 3.0 °F - -5.1 °F 69% 30.62 in 10.0 mi Calm Calm - N/A   Clear
9:53 AM 10.9 °F - -2.0 °F 56% 30.58 in 10.0 mi Calm Calm - N/A   Clear
10:53 AM 19.0 °F - 1.9 °F 47% 30.55 in 10.0 mi Calm Calm - N/A   Clear
11:53 AM 25.0 °F - 5.0 °F 43% 30.50 in 10.0 mi Calm Calm - N/A   Clear
12:53 PM 28.0 °F 22.8 °F 7.0 °F 41% 30.46 in 10.0 mi WSW 4.6 mph - N/A   Clear
1:53 PM 32.0 °F - 8.1 °F 37% 30.43 in 10.0 mi Calm Calm - N/A   Clear
2:53 PM 33.1 °F 28.7 °F 10.0 °F 38% 30.41 in 10.0 mi SSW 4.6 mph - N/A   Clear
3:53 PM 33.1 °F 27.7 °F 10.0 °F 38% 30.41 in 10.0 mi SSW 5.8 mph - N/A   Clear
4:53 PM 33.1 °F 28.7 °F 10.0 °F 38% 30.43 in 10.0 mi SSE 4.6 mph - N/A   Clear
5:53 PM 25.0 °F 14.8 °F 8.1 °F 49% 30.49 in 10.0 mi East 10.4 mph - N/A   Clear
6:53 PM 23.0 °F 13.9 °F 6.1 °F 48% 30.51 in 10.0 mi ESE 8.1 mph - N/A   Clear
7:53 PM 16.0 °F - 5.0 °F 62% 30.57 in 10.0 mi Calm Calm - N/A   Clear
8:53 PM 12.9 °F - 5.0 °F 71% 30.56 in 10.0 mi Calm Calm - N/A   Clear
9:53 PM 8.1 °F - 1.9 °F 76% 30.56 in 10.0 mi Calm Calm - N/A   Clear
10:53 PM 3.9 °F - -0.0 °F 84% 30.55 in 10.0 mi Calm Calm - N/A   Clear
11:53 PM 3.0 °F - -0.9 °F 84% 30.54 in 10.0 mi Calm Calm - N/A   Clear